Location: Unspecified
(0.0000°N, 0.0000°E)
Time: 04:45:02
(UTC+00:00)

COSMOS 2390 - Visible Passes

Search period start: 08 June 2023 00:00
Search period end: 18 June 2023 00:00
Orbit: 1467 x 1507 km, 82.5° (Epoch: 07 June)

Date Brightness Start Highest point End Pass type
(mag) Time Alt. Az. Time Alt. Az. Time Alt. Az.
08 Jun 8.7 03:12:37 22° SSE 03:18:08 45° E 03:26:21 10° NNE visible
08 Jun 8.9 05:08:28 12° SW 05:14:22 23° W 05:20:49 10° NW visible
09 Jun 9.8 02:22:50 14° SE 02:27:01 19° E 02:32:39 10° NE visible
09 Jun 8.0 04:18:41 29° SSW 04:23:16 53° W 04:31:45 10° NNW visible
10 Jun 8.0 03:28:49 43° SSE 03:32:11 73° E 03:40:56 10° N visible
10 Jun 9.3 05:25:26 10° WSW 05:28:25 12° W 05:31:25 10° WNW visible
11 Jun 9.1 02:38:52 29° ESE 02:41:05 33° E 02:48:36 10° NNE visible
11 Jun 8.5 04:34:42 28° WSW 04:37:19 32° W 04:44:52 10° NNW visible
12 Jun 10.0 01:48:51 12° E 01:49:57 12° E 01:52:59 10° ENE visible
12 Jun 7.7 03:44:41 61° SW 03:46:14 73° W 03:54:58 10° N visible
13 Jun 8.3 02:54:36 53° ESE 02:55:08 53° E 03:03:34 10° NNE visible
13 Jun 9.0 04:50:25 18° W 04:51:22 19° W 04:57:01 10° NW visible
14 Jun 9.5 02:04:27 23° E 02:04:27 23° E 02:10:26 10° NE visible
14 Jun 8.1 04:00:16 45° W 04:00:16 45° W 04:08:30 10° NNW visible
15 Jun 7.9 03:10:06 75° NNE 03:10:06 75° NNE 03:17:58 10° N visible
16 Jun 9.0 02:19:51 35° ENE 02:19:51 35° ENE 02:25:59 10° NNE visible
16 Jun 8.8 04:15:40 26° WNW 04:15:40 26° WNW 04:21:21 10° NNW visible
17 Jun 10.0 01:29:35 13° ENE 01:29:35 13° ENE 01:31:34 10° ENE visible
17 Jun 8.2 03:25:23 50° NW 03:25:23 50° NW 03:31:51 10° N visible
